Dades meteomassalio
Diari Summary for Marc 17, 2017 Units:  Metric    English   Both
« Previous Day
Next Day »
Diari Semanal Mensual Anual Personalitzat
  Maxima: Minima: Mijana:
Temperatura: 21.4 °C 1.8 °C 11.1 °C
Rosada: 4.8 °C -1.4 °C 2.2 °C
Humitat: 88 % 22 % 60 %
Velocitat del vent: 20.4 km/h 0.0 km/h 3 km/h
Racha vent: 20.4 km/h - -
Vent:- - East
Pressio: 1024.6 hPa 1020.5 hPa -
Pluja: 0.0 mm    
Historical Graphs
 
 
Tabular Data for Marc 17, 2017
Time Temperature Dew Point Pressure Wind Wind Speed Wind Gust Humidity Rainfall Rate (Hourly) solar Conditions
00:05 6.4 °C 3.2 °C 1023.2 hPa Calm     80 % 0.0 mm 0.0 W/m2 RA
00:10 6.3 °C 3.1 °C 1023.2 hPa Calm     80 % 0.0 mm 0.0 W/m2 CLR
00:15 6.2 °C 3.0 °C 1023.6 hPa Calm     80 % 0.0 mm 0.0 W/m2 CLR
00:20 6.1 °C 3.1 °C 1023.6 hPa Calm     81 % 0.0 mm 0.0 W/m2 CLR
00:25 6.0 °C 3.0 °C 1023.6 hPa Calm     81 % 0.0 mm 0.0 W/m2 CLR
00:30 5.9 °C 3.1 °C 1023.6 hPa Calm     82 % 0.0 mm 0.0 W/m2 CLR
00:35 5.8 °C 2.9 °C 1023.6 hPa Calm     82 % 0.0 mm 0.0 W/m2 CLR
00:40 5.8 °C 2.8 °C 1023.6 hPa Calm     81 % 0.0 mm 0.0 W/m2 CLR
00:45 5.8 °C 2.6 °C 1023.6 hPa Calm     80 % 0.0 mm 0.0 W/m2 CLR
00:50 5.7 °C 2.6 °C 1023.6 hPa Calm     80 % 0.0 mm 0.0 W/m2 CLR
00:54 5.6 °C 2.4 °C 1023.6 hPa Calm     80 % 0.0 mm 0.0 W/m2 CLR
01:00 5.6 °C 2.3 °C 1023.6 hPa Calm     79 % 0.0 mm 0.0 W/m2 CLR
01:05 5.7 °C 2.3 °C 1023.6 hPa Calm     79 % 0.0 mm 0.0 W/m2 CLR
01:10 5.6 °C 2.4 °C 1023.6 hPa Calm     80 % 0.0 mm 0.0 W/m2 CLR
01:15 5.4 °C 2.3 °C 1023.6 hPa Calm     80 % 0.0 mm 0.0 W/m2 CLR
01:20 5.3 °C 2.3 °C 1023.6 hPa Calm     81 % 0.0 mm 0.0 W/m2 CLR
01:25 5.2 °C 2.2 °C 1023.6 hPa Calm     81 % 0.0 mm 0.0 W/m2 CLR
01:30 5.1 °C 2.2 °C 1023.6 hPa Calm     82 % 0.0 mm 0.0 W/m2 CLR
01:35 4.9 °C 2.1 °C 1023.6 hPa Calm     82 % 0.0 mm 0.0 W/m2 CLR
01:40 4.8 °C 2.0 °C 1023.6 hPa Calm     82 % 0.0 mm 0.0 W/m2 CLR
01:45 4.7 °C 2.1 °C 1023.6 hPa Calm     83 % 0.0 mm 0.0 W/m2 CLR
01:50 4.6 °C 1.9 °C 1023.6 hPa Calm     83 % 0.0 mm 0.0 W/m2 CLR
01:55 4.5 °C 2.1 °C 1023.6 hPa Calm     84 % 0.0 mm 0.0 W/m2 CLR
02:00 4.4 °C 1.8 °C 1023.2 hPa Calm     83 % 0.0 mm 0.0 W/m2 CLR
02:05 4.4 °C 2.0 °C 1023.2 hPa Calm     84 % 0.0 mm 0.0 W/m2 CLR
02:10 4.4 °C 1.9 °C 1023.6 hPa Calm     84 % 0.0 mm 0.0 W/m2 CLR
02:15 4.3 °C 1.8 °C 1023.2 hPa Calm     84 % 0.0 mm 0.0 W/m2 CLR
02:20 4.2 °C 1.7 °C 1023.6 hPa Calm     84 % 0.0 mm 0.0 W/m2 CLR
02:25 4.1 °C 1.8 °C 1023.6 hPa Calm     85 % 0.0 mm 0.0 W/m2 CLR
02:30 4.1 °C 1.8 °C 1023.6 hPa Calm     85 % 0.0 mm 0.0 W/m2 CLR
02:35 3.9 °C 1.7 °C 1023.2 hPa Calm     85 % 0.0 mm 0.0 W/m2 CLR
02:40 4.0 °C 1.7 °C 1023.2 hPa Calm     85 % 0.0 mm 0.0 W/m2 CLR
02:45 4.0 °C 1.6 °C 1023.2 hPa Calm     84 % 0.0 mm 0.0 W/m2 CLR
02:50 3.9 °C 1.4 °C 1023.2 hPa Calm     84 % 0.0 mm 0.0 W/m2 CLR
02:55 3.8 °C 1.4 °C 1023.2 hPa Calm     84 % 0.0 mm 0.0 W/m2 CLR
03:00 3.8 °C 1.5 °C 1023.2 hPa Calm     85 % 0.0 mm 0.0 W/m2 CLR
03:05 3.7 °C 1.4 °C 1023.2 hPa Calm     85 % 0.0 mm 0.0 W/m2 CLR
03:10 3.6 °C 1.3 °C 1023.2 hPa Calm     85 % 0.0 mm 0.0 W/m2 CLR
03:15 3.6 °C 1.3 °C 1023.2 hPa Calm     85 % 0.0 mm 0.0 W/m2 CLR
03:20 3.6 °C 1.3 °C 1023.2 hPa Calm     85 % 0.0 mm 0.0 W/m2 CLR
03:25 3.5 °C 1.2 °C 1023.2 hPa Calm     85 % 0.0 mm 0.0 W/m2 CLR
03:30 3.4 °C 1.3 °C 1023.2 hPa Calm     86 % 0.0 mm 0.0 W/m2 CLR
03:35 3.3 °C 1.2 °C 1023.2 hPa Calm     86 % 0.0 mm 0.0 W/m2 CLR
03:40 3.3 °C 1.2 °C 1023.2 hPa Calm     86 % 0.0 mm 0.0 W/m2 CLR
03:45 3.2 °C 1.1 °C 1023.2 hPa Calm     86 % 0.0 mm 0.0 W/m2 CLR
03:50 3.2 °C 1.1 °C 1023.2 hPa Calm     86 % 0.0 mm 0.0 W/m2 CLR
03:55 3.1 °C 1.0 °C 1023.2 hPa Calm     86 % 0.0 mm 0.0 W/m2 CLR
04:00 3.3 °C 1.2 °C 1023.2 hPa WSW 5.6 km/h 5.6 km/h 86 % 0.0 mm 0.0 W/m2 CLR
04:05 3.5 °C 1.2 °C 1023.2 hPa Calm     85 % 0.0 mm 0.0 W/m2 CLR
04:10 3.6 °C 1.3 °C 1023.2 hPa Calm     85 % 0.0 mm 0.0 W/m2 CLR
04:15 3.4 °C 1.0 °C 1023.2 hPa Calm     84 % 0.0 mm 0.0 W/m2 CLR
04:20 3.3 °C 0.9 °C 1023.2 hPa Calm     84 % 0.0 mm 0.0 W/m2 CLR
04:25 3.2 °C 0.9 °C 1023.2 hPa Calm     85 % 0.0 mm 0.0 W/m2 CLR
04:30 3.1 °C 0.9 °C 1023.2 hPa Calm     86 % 0.0 mm 0.0 W/m2 CLR
04:35 2.9 °C 0.8 °C 1023.2 hPa Calm     86 % 0.0 mm 0.0 W/m2 CLR
04:40 2.8 °C 0.7 °C 1023.2 hPa Calm     86 % 0.0 mm 0.0 W/m2 CLR
04:45 2.7 °C 0.6 °C 1023.2 hPa Calm     86 % 0.0 mm 0.0 W/m2 CLR
04:50 2.7 °C 0.6 °C 1023.2 hPa Calm     86 % 0.0 mm 0.0 W/m2 CLR
04:55 2.6 °C 0.7 °C 1023.2 hPa Calm     87 % 0.0 mm 0.0 W/m2 CLR
05:00 2.6 °C 0.6 °C 1023.2 hPa Calm     87 % 0.0 mm 0.0 W/m2 CLR
05:05 2.5 °C 0.6 °C 1023.2 hPa Calm     87 % 0.0 mm 0.0 W/m2 CLR
05:10 2.4 °C 0.5 °C 1023.2 hPa Calm     87 % 0.0 mm 0.0 W/m2 CLR
05:15 2.4 °C 0.5 °C 1023.6 hPa Calm     87 % 0.0 mm 0.0 W/m2 CLR
05:20 2.5 °C 0.6 °C 1023.6 hPa Calm     87 % 0.0 mm 0.0 W/m2 CLR
05:25 2.4 °C 0.4 °C 1023.6 hPa Calm     87 % 0.0 mm 0.0 W/m2 CLR
05:30 2.3 °C 0.4 °C 1023.6 hPa Calm     87 % 0.0 mm 0.0 W/m2 CLR
05:35 2.2 °C 0.3 °C 1023.6 hPa Calm     87 % 0.0 mm 0.0 W/m2 CLR
05:40 2.2 °C 0.2 °C 1023.6 hPa Calm     87 % 0.0 mm 0.0 W/m2 CLR
05:45 2.1 °C 0.3 °C 1023.6 hPa Calm     88 % 0.0 mm 0.0 W/m2 CLR
05:50 2.1 °C 0.3 °C 1023.6 hPa Calm     88 % 0.0 mm 0.0 W/m2 CLR
05:55 2.1 °C 0.3 °C 1023.6 hPa SW 5.6 km/h 5.6 km/h 88 % 0.0 mm 0.0 W/m2 CLR
06:00 2.1 °C 0.3 °C 1023.6 hPa WSW 5.6 km/h 5.6 km/h 88 % 0.0 mm 0.0 W/m2 CLR
06:05 2.1 °C 0.3 °C 1023.6 hPa SW 5.6 km/h 5.6 km/h 88 % 0.0 mm 0.0 W/m2 CLR
06:10 2.2 °C 0.2 °C 1023.6 hPa SSW 3.7 km/h 3.7 km/h 87 % 0.0 mm 0.0 W/m2 CLR
06:15 2.2 °C 0.2 °C 1023.6 hPa Calm   0.3 km/h 87 % 0.0 mm 0.0 W/m2 CLR
06:20 2.1 °C 0.2 °C 1023.6 hPa Calm     87 % 0.0 mm 0.0 W/m2 CLR
06:25 2.1 °C 0.1 °C 1023.6 hPa Calm     87 % 0.0 mm 0.0 W/m2 CLR
06:30 2.1 °C 0.1 °C 1023.6 hPa Calm     87 % 0.0 mm 0.0 W/m2 CLR
06:35 2.0 °C 0.1 °C 1023.6 hPa Calm     87 % 0.0 mm 0.0 W/m2 CLR
06:40 1.9 °C 0.0 °C 1023.9 hPa Calm     87 % 0.0 mm 0.0 W/m2 CLR
06:45 1.9 °C -0.1 °C 1023.9 hPa Calm     87 % 0.0 mm 0.0 W/m2 CLR
06:50 1.8 °C -0.1 °C 1023.9 hPa Calm     87 % 0.0 mm 0.0 W/m2 CLR
06:55 1.9 °C 0.1 °C 1023.9 hPa SW 5.6 km/h 5.6 km/h 88 % 0.0 mm 0.0 W/m2 CLR
07:00 2.1 °C 0.1 °C 1023.9 hPa Calm     87 % 0.0 mm 0.0 W/m2 OVC
07:05 2.1 °C 0.1 °C 1023.9 hPa Calm     87 % 0.0 mm 0.0 W/m2 OVC
07:10 2.0 °C 0.1 °C 1024.3 hPa Calm     87 % 0.0 mm 5.0 W/m2 OVC
07:15 2.0 °C 0.1 °C 1024.3 hPa Calm     87 % 0.0 mm 9.0 W/m2 BKN
07:20 1.9 °C 0.0 °C 1024.3 hPa Calm     87 % 0.0 mm 11.0 W/m2 BKN
07:25 1.9 °C 0.0 °C 1024.3 hPa Calm     87 % 0.0 mm 12.0 W/m2 BKN
07:30 1.9 °C 0.0 °C 1024.3 hPa WSW 1.9 km/h   87 % 0.0 mm 14.0 W/m2 BKN
07:35 2.0 °C 0.1 °C 1024.3 hPa Calm     87 % 0.0 mm 19.0 W/m2 BKN
07:40 2.2 °C 0.4 °C 1024.3 hPa Calm     88 % 0.0 mm 30.0 W/m2 BKN
07:45 2.3 °C 0.4 °C 1024.3 hPa Calm     87 % 0.0 mm 42.0 W/m2 BKN
07:50 2.6 °C 0.8 °C 1024.3 hPa Calm     88 % 0.0 mm 60.0 W/m2 SCT
07:55 2.8 °C 0.9 °C 1024.3 hPa Calm     87 % 0.0 mm 76.0 W/m2 FEW
08:00 3.2 °C 1.3 °C 1024.6 hPa Calm     87 % 0.0 mm 88.0 W/m2 CLR
08:05 3.4 °C 1.2 °C 1024.6 hPa Calm     85 % 0.0 mm 100.0 W/m2 FEW
08:10 3.7 °C 1.4 °C 1024.6 hPa Calm     85 % 0.0 mm 116.0 W/m2 CLR
08:11 3.7 °C 1.4 °C 1024.6 hPa Calm     85 % 0.0 mm 118.0 W/m2 CLR
08:16 4.0 °C 1.7 °C 1024.6 hPa Calm     85 % 0.0 mm 91.0 W/m2 CLR
08:21 4.5 °C 2.1 °C 1024.6 hPa Calm     84 % 0.0 mm 142.0 W/m2 CLR
08:26 4.8 °C 2.0 °C 1024.3 hPa Calm     82 % 0.0 mm 174.0 W/m2 CLR
08:31 5.0 °C 1.8 °C 1024.3 hPa Calm     80 % 0.0 mm 192.0 W/m2 CLR
08:36 5.2 °C 1.8 °C 1024.3 hPa Calm     79 % 0.0 mm 211.0 W/m2 CLR
08:41 5.7 °C 2.3 °C 1024.6 hPa Calm     79 % 0.0 mm 230.0 W/m2 CLR
08:46 6.3 °C 2.6 °C 1024.3 hPa Calm     77 % 0.0 mm 251.0 W/m2 CLR
08:51 7.0 °C 2.9 °C 1024.6 hPa Calm     75 % 0.0 mm 267.0 W/m2 CLR
08:56 7.7 °C 2.7 °C 1024.6 hPa Calm     71 % 0.0 mm 283.0 W/m2 CLR
09:01 8.2 °C 2.6 °C 1024.6 hPa Calm     68 % 0.0 mm 297.0 W/m2 CLR
09:06 8.7 °C 3.1 °C 1024.6 hPa Calm     68 % 0.0 mm 316.0 W/m2 CLR
09:11 9.2 °C 3.4 °C 1024.3 hPa Calm     67 % 0.0 mm 332.0 W/m2 CLR
09:16 9.7 °C 3.2 °C 1024.3 hPa Calm     64 % 0.0 mm 348.0 W/m2 CLR
09:21 10.1 °C 3.2 °C 1024.3 hPa Calm     62 % 0.0 mm 362.0 W/m2 CLR
09:26 10.4 °C 3.2 °C 1024.3 hPa Calm     61 % 0.0 mm 380.0 W/m2 CLR
09:31 10.9 °C 4.6 °C 1024.3 hPa Calm     65 % 0.0 mm 394.0 W/m2 CLR
09:36 11.3 °C 4.3 °C 1024.3 hPa Calm     62 % 0.0 mm 408.0 W/m2 CLR
09:37 11.4 °C 3.9 °C 1024.3 hPa Calm     60 % 0.0 mm 408.0 W/m2 CLR
09:42 11.6 °C 3.3 °C 1024.3 hPa Calm     57 % 0.0 mm 427.0 W/m2 CLR
09:47 11.9 °C 2.9 °C 1024.3 hPa Calm     54 % 0.0 mm 441.0 W/m2 CLR
09:52 12.4 °C 2.0 °C 1024.3 hPa Calm     49 % 0.0 mm 457.0 W/m2 CLR
09:57 13.1 °C 2.6 °C 1024.3 hPa Calm     49 % 0.0 mm 473.0 W/m2 CLR
10:02 13.5 °C 2.7 °C 1024.3 hPa Calm     48 % 0.0 mm 485.0 W/m2 CLR
10:07 13.8 °C 2.1 °C 1024.3 hPa Calm     45 % 0.0 mm 499.0 W/m2 CLR
10:12 14.1 °C 2.3 °C 1024.3 hPa Calm     45 % 0.0 mm 513.0 W/m2 CLR
10:17 14.2 °C 2.7 °C 1024.3 hPa ENE 3.7 km/h   46 % 0.0 mm 527.0 W/m2 CLR
10:22 14.2 °C 3.0 °C 1024.3 hPa Calm     47 % 0.0 mm 540.0 W/m2 CLR
10:27 14.3 °C 2.8 °C 1024.3 hPa Calm     46 % 0.0 mm 550.0 W/m2 CLR
10:28 14.4 °C 2.9 °C 1024.3 hPa Calm     46 % 0.0 mm 550.0 W/m2 CLR
10:33 14.6 °C 3.4 °C 1024.3 hPa Calm     47 % 0.0 mm 564.0 W/m2 CLR
10:38 14.9 °C 3.1 °C 1024.3 hPa ENE 3.7 km/h 3.7 km/h 45 % 0.0 mm 577.0 W/m2 CLR
10:43 15.1 °C 2.6 °C 1024.3 hPa Calm     43 % 0.0 mm 589.0 W/m2 CLR
10:48 15.3 °C 3.4 °C 1024.3 hPa Calm     45 % 0.0 mm 599.0 W/m2 CLR
10:53 15.6 °C 3.1 °C 1024.3 hPa ENE 3.7 km/h 3.7 km/h 43 % 0.0 mm 612.0 W/m2 CLR
10:58 15.7 °C 3.1 °C 1023.9 hPa ENE 6.4 km/h 6.4 km/h 43 % 0.0 mm 621.0 W/m2 CLR
11:03 15.8 °C 1.9 °C 1023.9 hPa ENE 5.6 km/h   39 % 0.0 mm 631.0 W/m2 CLR
11:08 16.0 °C 2.4 °C 1023.9 hPa ENE 6.4 km/h 6.4 km/h 40 % 0.0 mm 640.0 W/m2 CLR
11:13 16.1 °C 1.0 °C 1023.9 hPa Calm     36 % 0.0 mm 652.0 W/m2 CLR
11:18 16.3 °C 1.6 °C 1023.9 hPa East 3.7 km/h 3.7 km/h 37 % 0.0 mm 661.0 W/m2 CLR
11:23 16.3 °C 1.2 °C 1023.9 hPa ENE 5.6 km/h 5.6 km/h 36 % 0.0 mm 671.0 W/m2 CLR
11:28 16.6 °C 2.2 °C 1023.9 hPa ENE 5.6 km/h 5.6 km/h 38 % 0.0 mm 670.0 W/m2 CLR
11:33 16.7 °C 1.6 °C 1023.9 hPa East 5.6 km/h 5.6 km/h 36 % 0.0 mm 687.0 W/m2 CLR
11:38 16.7 °C 1.5 °C 1023.6 hPa NE 5.6 km/h 5.6 km/h 36 % 0.0 mm 693.0 W/m2 CLR
11:43 16.8 °C 2.0 °C 1023.6 hPa Calm     37 % 0.0 mm 705.0 W/m2 CLR
11:48 17.1 °C 2.6 °C 1023.6 hPa ENE 9.3 km/h 9.3 km/h 38 % 0.0 mm 707.0 W/m2 CLR
11:53 17.3 °C 2.8 °C 1023.6 hPa ENE 5.6 km/h 5.6 km/h 38 % 0.0 mm 715.0 W/m2 CLR
11:58 17.4 °C 2.9 °C 1023.6 hPa ENE 7.4 km/h 7.4 km/h 38 % 0.0 mm 722.0 W/m2 CLR
12:03 17.5 °C 2.6 °C 1023.6 hPa Calm     37 % 0.0 mm 731.0 W/m2 CLR
12:08 17.6 °C 2.7 °C 1023.6 hPa NE 3.7 km/h 3.7 km/h 37 % 0.0 mm 729.0 W/m2 CLR
12:13 17.8 °C 2.6 °C 1023.2 hPa NE 8.0 km/h 8.0 km/h 36 % 0.0 mm 737.0 W/m2 CLR
12:18 17.9 °C 1.8 °C 1023.2 hPa Calm     34 % 0.0 mm 738.0 W/m2 CLR
12:23 18.2 °C 3.2 °C 1023.2 hPa NE 7.4 km/h 7.4 km/h 37 % 0.0 mm 745.0 W/m2 CLR
12:28 18.3 °C 2.1 °C 1023.2 hPa Calm     34 % 0.0 mm 751.0 W/m2 CLR
12:33 18.4 °C 2.7 °C 1023.2 hPa ENE 6.4 km/h 6.4 km/h 35 % 0.0 mm 751.0 W/m2 CLR
12:38 18.6 °C 1.9 °C 1023.2 hPa Calm     33 % 0.0 mm 758.0 W/m2 CLR
12:43 18.8 °C 2.6 °C 1023.2 hPa NNE 7.4 km/h 7.4 km/h 34 % 0.0 mm 763.0 W/m2 CLR
12:48 18.9 °C 3.1 °C 1023.2 hPa ENE 9.3 km/h 9.3 km/h 35 % 0.0 mm 761.0 W/m2 CLR
12:53 18.9 °C 2.7 °C 1022.9 hPa NE 8.0 km/h 8.0 km/h 34 % 0.0 mm 768.0 W/m2 CLR
12:58 19.2 °C 1.6 °C 1022.9 hPa Calm     31 % 0.0 mm 765.0 W/m2 CLR
13:03 19.3 °C 2.2 °C 1022.9 hPa NE 9.3 km/h 9.3 km/h 32 % 0.0 mm 770.0 W/m2 CLR
13:08 19.4 °C 2.3 °C 1022.9 hPa ENE 9.3 km/h 9.3 km/h 32 % 0.0 mm 770.0 W/m2 CLR
13:13 19.3 °C 2.2 °C 1022.6 hPa North 8.0 km/h 8.0 km/h 32 % 0.0 mm 770.0 W/m2 CLR
13:18 19.3 °C 2.2 °C 1022.6 hPa North 5.6 km/h 5.6 km/h 32 % 0.0 mm 766.0 W/m2 CLR
13:23 19.4 °C 2.3 °C 1022.6 hPa North 4.8 km/h 4.8 km/h 32 % 0.0 mm 766.0 W/m2 CLR
13:28 19.4 °C 2.7 °C 1022.6 hPa ENE 6.4 km/h 6.4 km/h 33 % 0.0 mm 766.0 W/m2 CLR
13:33 19.6 °C 3.3 °C 1022.6 hPa Calm     34 % 0.0 mm 765.0 W/m2 CLR
13:38 19.8 °C 2.2 °C 1022.6 hPa ENE 3.2 km/h 3.2 km/h 31 % 0.0 mm 763.0 W/m2 CLR
13:43 20.1 °C 2.4 °C 1022.6 hPa NE 9.3 km/h 9.3 km/h 31 % 0.0 mm 759.0 W/m2 CLR
13:48 20.1 °C 2.4 °C 1022.2 hPa NNE 11.1 km/h 11.1 km/h 31 % 0.0 mm 758.0 W/m2 CLR
13:53 20.0 °C 2.8 °C 1022.2 hPa NE 11.3 km/h 11.3 km/h 32 % 0.0 mm 752.0 W/m2 CLR
13:58 20.0 °C 2.3 °C 1022.2 hPa NNE 5.6 km/h 5.6 km/h 31 % 0.0 mm 749.0 W/m2 CLR
14:03 20.0 °C 3.2 °C 1022.2 hPa NNW 9.3 km/h 9.3 km/h 33 % 0.0 mm 745.0 W/m2 CLR
14:08 19.9 °C 4.0 °C 1022.2 hPa NE 14.8 km/h 14.8 km/h 35 % 0.0 mm 738.0 W/m2 CLR
14:13 19.9 °C 3.9 °C 1021.9 hPa NNE 12.9 km/h 12.9 km/h 35 % 0.0 mm 735.0 W/m2 CLR
14:18 19.9 °C 3.6 °C 1021.9 hPa ENE 16.7 km/h 16.7 km/h 34 % 0.0 mm 729.0 W/m2 CLR
14:23 20.1 °C 3.7 °C 1021.9 hPa NE 9.7 km/h 9.7 km/h 34 % 0.0 mm 722.0 W/m2 CLR
14:28 20.3 °C 3.1 °C 1021.9 hPa ENE 14.8 km/h 14.8 km/h 32 % 0.0 mm 715.0 W/m2 CLR
14:33 20.3 °C 3.1 °C 1021.9 hPa NNE 14.8 km/h 14.8 km/h 32 % 0.0 mm 710.0 W/m2 CLR
14:38 20.4 °C 2.2 °C 1021.6 hPa NNE 16.7 km/h 16.7 km/h 30 % 0.0 mm 701.0 W/m2 CLR
14:43 20.4 °C 2.7 °C 1021.6 hPa NE 18.5 km/h 18.5 km/h 31 % 0.0 mm 694.0 W/m2 CLR
14:48 20.4 °C 2.7 °C 1021.6 hPa North 11.1 km/h 11.1 km/h 31 % 0.0 mm 689.0 W/m2 CLR
14:53 20.4 °C 3.2 °C 1021.6 hPa NNE 9.3 km/h 9.3 km/h 32 % 0.0 mm 679.0 W/m2 CLR
14:58 20.7 °C 3.4 °C 1021.6 hPa NE 16.7 km/h 16.7 km/h 32 % 0.0 mm 671.0 W/m2 CLR
15:03 20.8 °C 3.0 °C 1021.2 hPa NE 18.5 km/h 18.5 km/h 31 % 0.0 mm 663.0 W/m2 CLR
15:08 20.7 °C 2.5 °C 1021.2 hPa North 5.6 km/h 5.6 km/h 30 % 0.0 mm 652.0 W/m2 CLR
15:13 20.8 °C 2.6 °C 1021.2 hPa North 13.0 km/h 13.0 km/h 30 % 0.0 mm 640.0 W/m2 CLR
15:18 21.0 °C 2.7 °C 1021.2 hPa NE 20.4 km/h 20.4 km/h 30 % 0.0 mm 631.0 W/m2 CLR
15:19 21.0 °C 2.7 °C 1021.2 hPa ENE 20.4 km/h 20.4 km/h 30 % 0.0 mm 631.0 W/m2 CLR
15:24 21.1 °C 2.8 °C 1021.2 hPa ENE 5.6 km/h 5.6 km/h 30 % 0.0 mm 622.0 W/m2 CLR
15:29 21.2 °C 1.9 °C 1021.2 hPa ENE 11.3 km/h 11.3 km/h 28 % 0.0 mm 610.0 W/m2 CLR
15:34 21.1 °C 2.4 °C 1020.9 hPa NE 16.7 km/h 16.7 km/h 29 % 0.0 mm 599.0 W/m2 CLR
15:39 21.1 °C 1.4 °C 1020.9 hPa NE 16.7 km/h 16.7 km/h 27 % 0.0 mm 587.0 W/m2 CLR
15:44 21.2 °C 1.4 °C 1020.9 hPa ENE 14.8 km/h 14.8 km/h 27 % 0.0 mm 577.0 W/m2 CLR
15:49 21.2 °C 1.4 °C 1020.9 hPa NE 18.5 km/h 18.5 km/h 27 % 0.0 mm 566.0 W/m2 CLR
15:54 21.2 °C 1.4 °C 1020.9 hPa ENE 16.7 km/h 16.7 km/h 27 % 0.0 mm 552.0 W/m2 CLR
15:59 21.3 °C 2.0 °C 1020.9 hPa NE 3.7 km/h 5.8 km/h 28 % 0.0 mm 540.0 W/m2 CLR
16:04 21.4 °C 1.6 °C 1020.9 hPa NE 16.1 km/h 16.1 km/h 27 % 0.0 mm 527.0 W/m2 CLR
16:09 21.4 °C 1.7 °C 1020.9 hPa East 7.4 km/h 7.4 km/h 27 % 0.0 mm 517.0 W/m2 CLR
16:14 21.4 °C -0.1 °C 1020.9 hPa ESE 12.9 km/h 12.9 km/h 24 % 0.0 mm 501.0 W/m2 CLR
16:19 21.3 °C -0.1 °C 1020.9 hPa ENE 5.6 km/h 5.6 km/h 24 % 0.0 mm 487.0 W/m2 CLR
16:24 21.3 °C -0.1 °C 1020.5 hPa East 9.3 km/h 9.3 km/h 24 % 0.0 mm 475.0 W/m2 CLR
16:29 21.3 °C -0.1 °C 1020.5 hPa East 5.6 km/h 5.6 km/h 24 % 0.0 mm 461.0 W/m2 CLR
16:34 21.4 °C -1.2 °C 1020.5 hPa East 7.4 km/h 7.6 km/h 22 % 0.0 mm 443.0 W/m2 CLR
16:39 21.3 °C -0.7 °C 1020.5 hPa ENE 14.8 km/h 14.8 km/h 23 % 0.0 mm 427.0 W/m2 CLR
16:44 21.3 °C -1.3 °C 1020.5 hPa East 9.7 km/h 9.7 km/h 22 % 0.0 mm 413.0 W/m2 CLR
16:49 21.2 °C -1.4 °C 1020.5 hPa ESE 5.6 km/h 5.6 km/h 22 % 0.0 mm 399.0 W/m2 CLR
16:54 21.1 °C -0.3 °C 1020.5 hPa East 8.0 km/h 8.0 km/h 24 % 0.0 mm 380.0 W/m2 CLR
16:59 20.9 °C -0.4 °C 1020.5 hPa NE 9.3 km/h 9.3 km/h 24 % 0.0 mm 366.0 W/m2 CLR
17:04 21.0 °C -0.3 °C 1020.5 hPa ENE 9.3 km/h 9.3 km/h 24 % 0.0 mm 350.0 W/m2 CLR
17:09 21.0 °C 0.7 °C 1020.5 hPa ENE 9.3 km/h 9.3 km/h 26 % 0.0 mm 334.0 W/m2 CLR
17:14 20.9 °C 1.2 °C 1020.5 hPa East 13.0 km/h 13.0 km/h 27 % 0.0 mm 316.0 W/m2 CLR
17:19 20.8 °C 1.6 °C 1020.5 hPa ESE 11.1 km/h 11.1 km/h 28 % 0.0 mm 297.0 W/m2 CLR
17:24 20.7 °C 1.6 °C 1020.5 hPa ESE 9.7 km/h 9.7 km/h 28 % 0.0 mm 281.0 W/m2 CLR
17:29 20.6 °C 1.9 °C 1020.5 hPa East 9.3 km/h 9.3 km/h 29 % 0.0 mm 264.0 W/m2 CLR
17:34 20.5 °C 2.3 °C 1020.5 hPa East 9.7 km/h 9.7 km/h 30 % 0.0 mm 248.0 W/m2 CLR
17:39 20.4 °C 1.7 °C 1020.5 hPa SE 9.7 km/h 9.7 km/h 29 % 0.0 mm 227.0 W/m2 CLR
17:44 20.2 °C 1.6 °C 1020.5 hPa ESE 11.1 km/h 11.1 km/h 29 % 0.0 mm 209.0 W/m2 CLR
17:49 20.2 °C 2.5 °C 1020.5 hPa ESE 5.6 km/h 5.6 km/h 31 % 0.0 mm 190.0 W/m2 CLR
17:54 20.1 °C 2.0 °C 1020.9 hPa ESE 8.0 km/h 8.0 km/h 30 % 0.0 mm 171.0 W/m2 CLR
17:59 19.9 °C 2.3 °C 1020.9 hPa ESE 9.3 km/h 9.3 km/h 31 % 0.0 mm 151.0 W/m2 CLR
18:04 19.8 °C 2.6 °C 1020.5 hPa SE 13.0 km/h 13.0 km/h 32 % 0.0 mm 134.0 W/m2 CLR
18:09 19.7 °C 2.5 °C 1020.9 hPa ESE 11.1 km/h 11.1 km/h 32 % 0.0 mm 116.0 W/m2 CLR
18:14 19.6 °C 2.4 °C 1020.9 hPa SE 8.0 km/h 8.0 km/h 32 % 0.0 mm 98.0 W/m2 CLR
18:19 19.4 °C 2.3 °C 1020.9 hPa ESE 8.0 km/h 8.0 km/h 32 % 0.0 mm 84.0 W/m2 FEW
18:24 19.3 °C 2.7 °C 1020.9 hPa SE 5.6 km/h 5.6 km/h 33 % 0.0 mm 65.0 W/m2 SCT
18:29 19.2 °C 2.6 °C 1020.9 hPa ESE 5.6 km/h 5.6 km/h 33 % 0.0 mm 51.0 W/m2 SCT
18:34 19.1 °C 2.8 °C 1020.9 hPa ESE 5.6 km/h 5.6 km/h 34 % 0.0 mm 39.0 W/m2 BKN
18:39 18.9 °C 2.7 °C 1020.9 hPa Calm     34 % 0.0 mm 30.0 W/m2 BKN
18:44 18.7 °C 2.9 °C 1020.9 hPa Calm     35 % 0.0 mm 19.0 W/m2 BKN
18:49 18.6 °C 2.8 °C 1020.9 hPa Calm     35 % 0.0 mm 14.0 W/m2 BKN
18:50 18.5 °C 2.7 °C 1020.9 hPa Calm     35 % 0.0 mm 14.0 W/m2 BKN
18:55 18.3 °C 3.0 °C 1020.9 hPa Calm     36 % 0.0 mm 12.0 W/m2 BKN
19:00 18.1 °C 2.8 °C 1020.9 hPa Calm     36 % 0.0 mm 9.0 W/m2 BKN
19:05 17.8 °C 2.6 °C 1020.9 hPa Calm     36 % 0.0 mm 7.0 W/m2 BKN
19:10 17.6 °C 3.1 °C 1020.9 hPa Calm     38 % 0.0 mm 0.0 W/m2 OVC
19:15 17.4 °C 2.9 °C 1021.2 hPa Calm     38 % 0.0 mm 0.0 W/m2 OVC
19:20 17.2 °C 2.7 °C 1021.2 hPa Calm     38 % 0.0 mm 0.0 W/m2 CLR
19:25 16.9 °C 3.9 °C 1021.2 hPa Calm     42 % 0.0 mm 0.0 W/m2 CLR
19:30 16.4 °C 3.4 °C 1021.2 hPa Calm     42 % 0.0 mm 0.0 W/m2 CLR
19:35 16.1 °C 3.4 °C 1021.2 hPa Calm     43 % 0.0 mm 0.0 W/m2 CLR
19:40 15.8 °C 3.8 °C 1021.6 hPa Calm     45 % 0.0 mm 0.0 W/m2 CLR
19:45 15.4 °C 4.8 °C 1021.6 hPa Calm     49 % 0.0 mm 0.0 W/m2 CLR
19:50 14.9 °C 4.3 °C 1021.6 hPa Calm     49 % 0.0 mm 0.0 W/m2 CLR
19:51 14.8 °C 4.4 °C 1021.6 hPa Calm     50 % 0.0 mm 0.0 W/m2 CLR
19:56 14.2 °C 4.2 °C 1021.6 hPa Calm     51 % 0.0 mm 0.0 W/m2 CLR
20:01 13.7 °C 4.3 °C 1021.6 hPa Calm     53 % 0.0 mm 0.0 W/m2 CLR
20:06 13.4 °C 4.5 °C 1021.6 hPa Calm     55 % 0.0 mm 0.0 W/m2 CLR
20:11 12.9 °C 4.6 °C 1021.6 hPa Calm     57 % 0.0 mm 0.0 W/m2 CLR
20:16 12.4 °C 4.6 °C 1021.6 hPa Calm     59 % 0.0 mm 0.0 W/m2 CLR
20:21 11.9 °C 4.7 °C 1021.6 hPa Calm     61 % 0.0 mm 0.0 W/m2 CLR
20:26 11.7 °C 4.6 °C 1021.9 hPa Calm     62 % 0.0 mm 0.0 W/m2 CLR
20:31 11.3 °C 4.6 °C 1021.9 hPa Calm     63 % 0.0 mm 0.0 W/m2 CLR
20:36 11.1 °C 4.5 °C 1021.9 hPa Calm     64 % 0.0 mm 0.0 W/m2 CLR
20:41 10.8 °C 4.3 °C 1021.9 hPa Calm     64 % 0.0 mm 0.0 W/m2 CLR
20:46 10.6 °C 4.3 °C 1021.9 hPa Calm     65 % 0.0 mm 0.0 W/m2 CLR
20:51 10.3 °C 4.3 °C 1021.9 hPa Calm     66 % 0.0 mm 0.0 W/m2 CLR
20:56 10.2 °C 4.3 °C 1021.9 hPa Calm     67 % 0.0 mm 0.0 W/m2 CLR
21:01 10.0 °C 4.3 °C 1021.9 hPa Calm     68 % 0.0 mm 0.0 W/m2 CLR
21:06 9.7 °C 4.3 °C 1022.2 hPa Calm     69 % 0.0 mm 0.0 W/m2 CLR
21:11 9.4 °C 4.4 °C 1022.2 hPa Calm     71 % 0.0 mm 0.0 W/m2 CLR
21:16 9.2 °C 4.4 °C 1022.2 hPa Calm     72 % 0.0 mm 0.0 W/m2 CLR
21:21 9.1 °C 4.3 °C 1022.2 hPa Calm     72 % 0.0 mm 0.0 W/m2 CLR
21:26 8.9 °C 4.4 °C 1022.2 hPa Calm     73 % 0.0 mm 0.0 W/m2 CLR
21:31 8.9 °C 4.3 °C 1022.2 hPa Calm     73 % 0.0 mm 0.0 W/m2 CLR
21:36 8.7 °C 4.2 °C 1022.6 hPa Calm     73 % 0.0 mm 0.0 W/m2 CLR
21:41 8.5 °C 4.1 °C 1022.6 hPa Calm     74 % 0.0 mm 0.0 W/m2 CLR
21:46 8.4 °C 4.0 °C 1022.6 hPa Calm     74 % 0.0 mm 0.0 W/m2 CLR
21:51 8.2 °C 4.1 °C 1022.6 hPa Calm     75 % 0.0 mm 0.0 W/m2 CLR
21:57 8.1 °C 3.9 °C 1022.6 hPa Calm     75 % 0.0 mm 0.0 W/m2 CLR
22:02 7.9 °C 3.9 °C 1022.6 hPa Calm     76 % 0.0 mm 0.0 W/m2 CLR
22:07 7.8 °C 3.8 °C 1022.6 hPa Calm     76 % 0.0 mm 0.0 W/m2 CLR
22:12 7.7 °C 3.9 °C 1022.6 hPa Calm     77 % 0.0 mm 0.0 W/m2 CLR
22:17 7.6 °C 3.8 °C 1022.6 hPa Calm     77 % 0.0 mm 0.0 W/m2 CLR
22:22 7.4 °C 3.7 °C 1022.6 hPa Calm     77 % 0.0 mm 0.0 W/m2 CLR
22:27 7.3 °C 3.7 °C 1022.9 hPa Calm     78 % 0.0 mm 0.0 W/m2 CLR
22:32 7.2 °C 3.8 °C 1022.9 hPa Calm     79 % 0.0 mm 0.0 W/m2 CLR
22:37 7.1 °C 3.7 °C 1022.6 hPa Calm     79 % 0.0 mm 0.0 W/m2 CLR
22:42 7.0 °C 3.6 °C 1022.9 hPa Calm     79 % 0.0 mm 0.0 W/m2 CLR
22:47 7.1 °C 3.5 °C 1022.9 hPa Calm     78 % 0.0 mm 0.0 W/m2 CLR
22:52 7.0 °C 3.4 °C 1022.9 hPa Calm     78 % 0.0 mm 0.0 W/m2 CLR
22:57 6.8 °C 3.4 °C 1022.6 hPa Calm     79 % 0.0 mm 0.0 W/m2 CLR
23:02 6.6 °C 3.3 °C 1022.9 hPa Calm     80 % 0.0 mm 0.0 W/m2 CLR
23:07 6.5 °C 3.3 °C 1022.9 hPa Calm     80 % 0.0 mm 0.0 W/m2 CLR
23:12 6.4 °C 3.2 °C 1022.6 hPa Calm     80 % 0.0 mm 0.0 W/m2 CLR
23:17 6.4 °C 3.2 °C 1022.9 hPa Calm     80 % 0.0 mm 0.0 W/m2 CLR
23:18 6.4 °C 3.2 °C 1022.9 hPa Calm     80 % 0.0 mm 0.0 W/m2 CLR
23:23 6.3 °C 3.1 °C 1022.9 hPa Calm     80 % 0.0 mm 0.0 W/m2 CLR
23:28 6.3 °C 3.1 °C 1022.9 hPa Calm     80 % 0.0 mm 0.0 W/m2 CLR
23:33 6.2 °C 3.2 °C 1022.9 hPa Calm     81 % 0.0 mm 0.0 W/m2 CLR
23:38 6.1 °C 3.1 °C 1022.9 hPa Calm     81 % 0.0 mm 0.0 W/m2 CLR
23:43 6.1 °C 3.1 °C 1022.9 hPa Calm     81 % 0.0 mm 0.0 W/m2 CLR
23:48 6.0 °C 3.2 °C 1022.9 hPa Calm     82 % 0.0 mm 0.0 W/m2 CLR
23:53 5.9 °C 3.1 °C 1022.9 hPa Calm     82 % 0.0 mm 0.0 W/m2 CLR
23:58 5.7 °C 2.9 °C 1022.9 hPa Calm     82 % 0.0 mm 0.0 W/m2 CLR
Lo Temps de Massalio
Compliments of Weather Underground - 1.25 mb